TimeMST,TemperatureF,Dew PointF,Humidity,Sea Level PressureIn,VisibilityMPH,Wind Direction,Wind SpeedMPH,Gust SpeedMPH,PrecipitationIn,Events,Conditions,WindDirDegrees,DateUTC
12:53 AM,-9999,-9999,N/A,30.14,-9999.0,North,-9999.0,-,N/A,,Unknown,0,2013-01-10 07:53:00
1:53 AM,30.0,23.0,75,30.10,10.0,North,-9999.0,-,N/A,,Unknown,0,2013-01-10 08:53:00
2:53 AM,-9999,-9999,N/A,30.07,-9999.0,North,-9999.0,-,N/A,,Unknown,0,2013-01-10 09:53:00
3:53 AM,-9999,-9999,N/A,30.02,-9999.0,North,-9999.0,-,N/A,,Unknown,0,2013-01-10 10:53:00
4:53 AM,-9999,-9999,N/A,29.98,-9999.0,North,-9999.0,-,N/A,,Unknown,0,2013-01-10 11:53:00
5:53 AM,-9999,-9999,N/A,29.95,-9999.0,North,-9999.0,-,N/A,,Unknown,0,2013-01-10 12:53:00
6:53 AM,35.1,25.0,67,29.97,10.0,South,6.9,-,N/A,,Unknown,190,2013-01-10 13:53:00
8:30 AM,35.6,30.2,81,29.89,10.0,West,15.0,-,N/A,,Overcast,260,2013-01-10 15:30:00
8:53 AM,36.0,32.0,86,29.91,6.0,WSW,9.2,-,N/A,,Overcast,240,2013-01-10 15:53:00
9:53 AM,39.9,37.0,89,29.86,7.0,South,8.1,-,N/A,,Overcast,180,2013-01-10 16:53:00
10:53 AM,39.9,36.0,86,29.76,10.0,SSW,11.5,-,N/A,,Mostly Cloudy,200,2013-01-10 17:53:00
11:53 AM,48.9,37.9,66,29.72,10.0,SSW,15.0,-,N/A,,Clear,210,2013-01-10 18:53:00
12:53 PM,52.0,37.0,57,29.67,-9999.0,North,-9999.0,-,N/A,,Unknown,0,2013-01-10 19:53:00
1:53 PM,45.0,36.0,71,29.67,10.0,SW,15.0,-,N/A,,Clear,220,2013-01-10 20:53:00
2:53 PM,46.9,35.1,63,29.65,10.0,South,15.0,-,N/A,,Clear,190,2013-01-10 21:53:00
3:53 PM,44.1,34.0,68,29.64,10.0,SSW,15.0,-,N/A,,Clear,200,2013-01-10 22:53:00
4:53 PM,39.0,33.1,79,29.61,10.0,South,15.0,-,N/A,,Clear,180,2013-01-10 23:53:00
5:53 PM,36.0,32.0,86,29.59,10.0,South,16.1,-,N/A,,Clear,190,2013-01-11 00:53:00
6:18 PM,37.4,35.6,93,29.58,10.0,South,19.6,-,N/A,,Scattered Clouds,190,2013-01-11 01:18:00
6:27 PM,37.4,35.6,93,29.58,9.0,South,20.7,-,N/A,,Mostly Cloudy,190,2013-01-11 01:27:00
6:53 PM,37.9,37.0,97,29.58,4.0,South,12.7,-,N/A,,Overcast,190,2013-01-11 01:53:00
7:19 PM,37.4,35.6,93,29.55,2.0,South,17.3,-,N/A,,Overcast,180,2013-01-11 02:19:00
7:31 PM,37.4,35.6,93,29.55,1.5,South,19.6,-,N/A,,Overcast,180,2013-01-11 02:31:00
7:53 PM,37.0,36.0,96,29.55,2.0,South,18.4,-,N/A,,Overcast,190,2013-01-11 02:53:00
8:04 PM,37.4,37.4,100,29.54,4.0,South,15.0,-,N/A,,Overcast,190,2013-01-11 03:04:00
8:53 PM,37.9,37.0,97,29.56,10.0,SSW,13.8,-,N/A,,Overcast,200,2013-01-11 03:53:00
9:53 PM,37.9,37.0,97,29.52,9.0,South,13.8,-,N/A,,Overcast,190,2013-01-11 04:53:00
10:21 PM,37.4,35.6,93,29.51,10.0,South,16.1,-,N/A,,Scattered Clouds,190,2013-01-11 05:21:00
10:53 PM,37.0,36.0,96,29.50,10.0,South,16.1,-,N/A,,Scattered Clouds,190,2013-01-11 05:53:00
11:01 PM,37.4,35.6,93,29.50,10.0,South,13.8,-,N/A,,Mostly Cloudy,180,2013-01-11 06:01:00
11:11 PM,37.4,35.6,93,29.50,1.8,South,17.3,-,N/A,,Mostly Cloudy,180,2013-01-11 06:11:00
11:44 PM,35.6,35.6,100,29.49,0.8,SSW,10.4,-,N/A,,Mist,200,2013-01-11 06:44:00
11:53 PM,35.1,35.1,100,29.46,1.0,SSW,9.2,-,N/A,,Mist,200,2013-01-11 06:53:00